Temp
60 60 62 62 62 62 63 64 64 63 63 63 65 66 65 65 64 61 55 60 64 71 70 64 64 64 63 58 59 54 44 40 43 48 48 53 51 56 56 51 55 56 55 56 60
60 59 58 59 59 62 63 63 63 63 63 63 63 65 65 64 60 55 67 70 71 72 63 61 59 61 55 55 55 49 42 44 49 49 50 53 52 51 51 50 50 53 58 58 58
61 60 58 57 56 60 63 63 63 63 63 64 62 63 62 62 54 52 68 71 71 70 63 61 61 60 52 53 52 50 45 50 50 52 54 52 50 53 48 47 50 49 55 58 57
61 60 60 59 59 61 62 62 62 63 64 62 61 63 61 57 41 56 67 70 72 66 63 60 58 51 47 46 51 46 51 52 52 52 52 49 51 48 49 49 55 53 56 56 57
61 60 60 61 61 61 62 62 62 63 62 61 62 61 59 48 47 61 65 65 65 63 59 57 54 51 47 49 49 47 47 51 51 51 49 51 46 46 48 54 54 56 59 56 56
60 60 60 60 61 61 61 62 62 62 62 62 62 62 55 42 58 61 60 62 62 61 57 57 54 55 50 47 46 46 49 48 50 49 49 47 46 48 50 52 55 57 57 55 55
60 60 59 60 60 60 61 61 62 62 62 63 63 60 51 48 57 58 59 59 60 60 55 57 56 55 50 47 50 48 44 45 45 47 46 47 43 44 50 54 54 56 57 55 53
59 59 59 59 59 60 60 61 61 61 62 62 61 55 47 59 58 60 61 59 61 61 58 57 58 54 51 50 49 44 41 35 44 46 47 46 40 49 53 52 51 53 54 52 52
59 59 59 59 59 59 60 60 60 61 62 61 53 51 43 60 55 58 60 56 58 58 58 63 56 48 47 39 34 37 32 34 39 48 46 43 40 49 51 50 49 50 48 50 50
59 59 59 59 58 57 59 59 61 59 58 59 55 46 50 50 54 58 60 60 55 54 52 51 43 36 36 31 24 32 32 37 36 43 43 40 41 47 50 49 47 45 45 45 47
59 59 59 59 58 57 54 50 47 46 49 44 45 46 49 54 57 56 59 56 55 50 40 43 32 26 31 35 38 38 33 32 38 44 41 39 40 45 48 47 46 44 42 42 43
59 59 59 59 58 58 53 45 44 48 42 49 49 50 52 54 49 53 58 49 47 39 42 35 28 38 43 42 40 37 32 31 38 44 41 39 39 46 47 46 47 44 41 40 42
59 59 59 59 59 54 49 47 53 52 42 45 49 48 50 54 48 48 53 49 43 39 38 33 37 45 43 38 36 32 31 30 32 39 40 38 36 40 45 45 46 44 44 41 41
59 59 59 58 53 50 47 53 53 52 34 37 44 51 54 52 46 55 55 49 45 37 38 36 42 42 38 36 36 31 40 39 37 30 24 37 24 35 39 43 43 41 40 39 39
58 59 59 58 51 48 52 54 52 48 21 42 45 57 54 47 47 49 56 51 41 41 39 34 37 37 36 36 41 36 42 38 37 31 26 29 23 32 37 38 39 39 39 41 40
58 58 58 53 51 52 54 52 49 28 19 37 46 45 45 47 47 50 49 51 48 41 40 38 44 41 40 44 43 44 38 37 37 32 17 25 26 30 35 39 39 41 40 41 41
58 58 55 55 47 52 51 44 27 20 39 36 39 44 43 42 43 45 42 39 33 26 23 35 37 41 44 38 41 39 30 17 19 25 19 30 22 31 40 41 42 43 40 39 40
56 56 55 55 51 50 45 34 21 31 33 43 42 43 38 42 41 42 39 31 40 36 28 21 23 38 43 39 35 35 33 19 15 13 20 28 20 32 41 44 43 43 41 39 39
55 47 48 50 52 47 40 25 24 31 41 40 41 35 35 41 40 39 35 36 38 39 29 23 27 41 43 44 42 36 28 36 23 18 15 20 29 39 42 40 40 40 38 38 38
45 45 46 52 50 44 34 31 33 43 44 43 34 37 30 34 35 35 35 40 41 43 42 36 26 39 42 43 42 38 41 27 24 14 16 18 23 27 35 38 40 40 38 38 39
45 43 49 51 48 40 28 30 40 46 47 41 37 36 35 35 36 35 36 40 44 42 42 38 34 33 38 35 34 34 32 33 32 27 20 19 22 35 38 40 41 42 41 40 39
43 37 49 49 37 33 29 39 46 43 46 44 42 41 38 39 36 35 36 39 46 45 38 39 35 26 33 40 42 38 36 34 25 25 25 23 24 42 43 43 43 43 43 41 40
41 41 48 47 31 27 38 42 44 43 43 44 42 44 43 38 34 37 39 44 47 43 39 39 32 20 28 34 37 35 37 37 35 30 25 21 29 42 39 40 43 42 42 42 41
42 34 42 42 39 38 37 38 39 45 44 45 43 44 41 38 40 36 38 44 45 45 49 46 33 30 25 31 34 31 34 36 36 23 29 32 37 42 40 40 42 42 42 42 42
40 36 39 32 39 38 39 41 39 39 43 44 41 42 39 34 36 35 39 39 42 47 41 40 29 28 32 35 35 35 35 36 33 35 28 36 34 43 42 42 43 44 44 43 41
40 39 39 37 40 38 39 39 41 42 43 40 39 42 41 37 38 35 38 38 38 37 38 38 29 30 24 35 34 31 35 35 36 37 37 38 37 48 50 49 41 43 43 43 43
40 41 42 39 37 35 37 39 42 43 43 46 43 39 38 42 42 43 43 43 40 38 35 34 29 26 24 30 30 26 33 35 34 35 37 31 40 46 42 43 43 44 44 44 44
MSLP
1012.81 1011.73 1012.24 1012.84 1013.52 1013.45 1013.70 1013.76 1013.87 1013.96 1013.70 1013.87 1014.03 1014.70 1015.22 1015.44 1015.69 1015.70 1016.10 1016.21 1015.93 1015.43 1015.20 1015.03 1014.82 1014.93 1015.18 1015.77 1016.08 1016.50 1017.68 1018.87 1018.75 1018.55 1018.38 1018.15 1018.15 1018.14 1018.04 1017.98 1017.84 1017.77 1018.04 1018.44 1018.38
1013.26 1013.26 1012.62 1013.61 1013.95 1013.77 1014.00 1014.03 1014.05 1014.19 1013.91 1014.31 1014.18 1014.99 1015.29 1015.50 1015.58 1016.13 1016.54 1016.09 1015.65 1015.54 1015.38 1015.39 1015.34 1015.30 1015.91 1016.25 1016.62 1017.10 1018.37 1018.97 1018.88 1018.61 1018.52 1018.49 1018.51 1018.58 1018.40 1018.49 1018.25 1018.17 1018.29 1018.49 1018.52
1013.58 1013.80 1014.05 1014.37 1014.82 1014.47 1014.41 1014.27 1014.14 1014.03 1013.99 1013.84 1014.77 1015.40 1015.56 1015.67 1015.95 1017.10 1016.67 1016.04 1015.79 1015.68 1015.59 1015.61 1015.64 1015.64 1016.41 1016.77 1017.32 1017.66 1018.51 1018.91 1019.18 1018.93 1018.76 1018.91 1019.00 1019.03 1018.89 1018.79 1018.64 1018.60 1018.47 1018.32 1018.39
1014.25 1014.23 1014.54 1014.78 1014.90 1014.54 1014.56 1014.51 1014.36 1013.94 1013.80 1014.00 1015.09 1015.22 1015.68 1015.89 1017.37 1017.36 1016.81 1016.06 1015.64 1015.61 1015.49 1015.54 1015.75 1016.26 1016.98 1017.43 1017.61 1018.34 1018.90 1018.92 1019.24 1019.30 1019.16 1019.35 1019.46 1019.45 1019.24 1018.72 1018.70 1018.66 1018.53 1018.39 1018.55
1015.00 1015.04 1014.99 1014.86 1014.82 1014.90 1014.93 1014.82 1014.73 1014.60 1014.95 1015.15 1015.31 1015.51 1015.78 1016.80 1017.99 1017.46 1017.09 1016.31 1015.68 1015.67 1015.93 1015.94 1016.19 1016.62 1017.37 1017.83 1018.12 1018.56 1019.30 1019.54 1019.52 1019.57 1019.59 1019.68 1019.72 1019.76 1019.16 1018.72 1018.71 1018.78 1018.60 1018.66 1018.85
1015.66 1015.40 1015.52 1015.35 1015.19 1015.23 1015.14 1015.07 1015.01 1014.99 1015.20 1015.43 1015.77 1015.84 1016.42 1017.71 1018.13 1017.79 1017.34 1016.48 1016.10 1016.15 1016.35 1016.43 1016.80 1016.78 1017.68 1018.47 1018.66 1019.10 1019.46 1019.89 1019.84 1019.91 1019.86 1019.91 1019.92 1019.76 1018.86 1018.54 1018.57 1018.66 1018.69 1018.83 1019.20
1016.12 1016.10 1016.01 1015.83 1015.86 1015.68 1015.31 1015.21 1015.35 1015.40 1015.73 1015.86 1016.17 1016.13 1017.49 1018.51 1018.19 1017.71 1017.34 1017.02 1016.69 1016.55 1016.84 1017.13 1017.05 1017.24 1018.05 1018.92 1019.27 1019.61 1020.02 1020.19 1020.20 1020.05 1020.03 1019.98 1020.01 1019.74 1018.94 1018.81 1018.84 1018.81 1018.93 1019.43 1019.80
1016.63 1016.49 1016.47 1016.31 1016.15 1015.84 1015.61 1015.61 1015.72 1016.16 1016.20 1016.06 1016.09 1016.51 1018.29 1018.18 1017.82 1017.51 1017.21 1017.19 1016.93 1016.89 1017.07 1017.23 1017.13 1017.81 1018.75 1019.37 1019.87 1020.27 1020.62 1020.85 1020.54 1020.37 1020.30 1020.18 1019.85 1019.14 1018.82 1019.03 1019.23 1019.27 1019.35 1019.85 1020.16
1017.12 1017.00 1017.07 1016.97 1016.79 1016.55 1016.14 1016.41 1016.53 1016.65 1016.57 1016.47 1016.82 1017.21 1018.81 1018.11 1018.00 1017.89 1017.50 1017.66 1017.43 1017.30 1017.31 1017.30 1017.67 1019.33 1019.82 1020.64 1021.44 1021.43 1021.38 1021.03 1020.64 1020.49 1020.52 1020.49 1019.90 1019.15 1019.02 1019.26 1019.43 1019.43 1019.71 1020.03 1020.39
1017.36 1017.37 1017.45 1017.60 1017.52 1017.61 1017.34 1017.16 1016.99 1017.04 1017.34 1017.31 1017.69 1017.73 1019.18 1019.20 1018.80 1018.36 1017.87 1017.80 1017.96 1018.15 1018.29 1018.64 1019.74 1020.83 1021.62 1021.79 1022.32 1022.03 1021.60 1021.35 1020.97 1020.95 1020.77 1020.79 1020.06 1019.48 1019.12 1019.38 1019.52 1019.67 1020.16 1020.41 1020.65
1017.96 1017.79 1017.66 1017.91 1018.20 1018.11 1017.88 1017.93 1018.19 1018.41 1018.77 1019.32 1019.28 1019.22 1019.56 1019.34 1019.15 1018.71 1018.38 1018.25 1018.37 1018.99 1019.90 1020.61 1021.58 1022.42 1022.65 1022.40 1022.09 1021.93 1021.89 1021.85 1021.51 1021.45 1021.41 1020.90 1020.38 1018.90 1018.87 1018.98 1019.31 1019.90 1020.42 1020.75 1020.94
1018.45 1018.27 1018.34 1018.46 1018.64 1018.49 1018.66 1019.14 1019.65 1019.60 1019.69 1019.65 1019.77 1019.99 1019.74 1019.63 1019.37 1018.99 1018.45 1018.79 1019.18 1020.21 1020.73 1021.76 1022.73 1022.94 1022.68 1022.55 1022.52 1022.48 1022.57 1022.69 1022.36 1021.98 1022.06 1021.37 1020.45 1018.89 1018.36 1018.29 1018.59 1019.60 1020.59 1021.00 1021.09
1019.34 1019.12 1018.99 1019.02 1018.90 1019.06 1019.51 1019.93 1019.89 1019.78 1020.17 1020.78 1020.69 1020.30 1020.05 1019.81 1019.81 1019.56 1019.17 1019.29 1020.07 1020.96 1021.64 1022.46 1023.14 1022.87 1022.75 1022.89 1023.06 1023.32 1023.25 1023.31 1023.41 1022.87 1022.53 1022.17 1020.49 1019.10 1018.37 1018.54 1019.03 1019.97 1020.66 1021.04 1021.24
1019.59 1019.60 1019.57 1019.43 1019.57 1020.20 1020.37 1020.28 1019.96 1019.79 1020.43 1021.44 1020.63 1019.76 1019.69 1019.59 1019.82 1019.65 1019.45 1019.79 1020.51 1021.74 1022.39 1023.11 1023.11 1022.93 1022.91 1023.14 1023.27 1023.49 1023.41 1023.58 1023.86 1024.18 1024.16 1023.59 1022.29 1019.95 1018.95 1019.15 1019.74 1020.32 1020.75 1021.19 1021.61
1019.68 1019.75 1019.85 1019.70 1020.10 1020.59 1020.53 1020.37 1020.43 1020.17 1021.02 1021.98 1020.69 1019.69 1019.69 1019.98 1020.21 1019.90 1019.70 1019.81 1021.03 1021.88 1022.65 1023.67 1023.32 1023.14 1023.10 1023.16 1023.13 1023.49 1023.59 1023.93 1024.36 1024.88 1025.26 1024.46 1024.09 1020.09 1019.40 1019.43 1019.85 1020.29 1020.84 1021.20 1021.43
1019.77 1019.76 1019.91 1020.09 1020.33 1020.48 1020.64 1020.72 1020.96 1021.42 1022.82 1021.99 1020.71 1020.13 1020.07 1020.01 1020.23 1020.22 1020.24 1020.40 1021.39 1022.23 1023.02 1023.59 1023.35 1023.24 1023.12 1023.02 1023.18 1023.49 1024.01 1024.37 1024.58 1025.44 1026.08 1025.07 1024.47 1020.88 1019.58 1018.87 1019.25 1019.89 1020.41 1020.88 1021.13
1019.83 1019.84 1019.69 1019.92 1020.23 1020.21 1020.73 1021.46 1022.11 1022.20 1023.10 1022.07 1021.16 1020.53 1020.39 1020.55 1020.57 1020.62 1020.94 1021.34 1022.08 1023.11 1024.41 1024.14 1023.81 1023.29 1023.01 1023.12 1023.31 1023.67 1024.54 1025.44 1026.16 1026.72 1026.55 1025.53 1024.85 1020.87 1019.25 1018.82 1018.79 1019.50 1020.20 1020.61 1020.73
1019.70 1019.63 1019.56 1019.26 1019.49 1020.10 1020.81 1021.55 1022.36 1023.78 1022.83 1021.96 1021.31 1020.98 1020.96 1020.89 1020.92 1021.01 1021.38 1021.91 1022.20 1022.88 1024.39 1024.54 1024.17 1023.39 1023.09 1023.07 1023.18 1023.70 1024.60 1026.14 1027.36 1028.11 1027.52 1026.02 1024.15 1019.98 1018.68 1018.36 1018.65 1019.11 1019.60 1020.13 1020.45
1019.91 1019.94 1019.62 1019.07 1019.27 1019.80 1020.41 1021.97 1023.41 1022.91 1022.01 1021.53 1021.32 1021.22 1021.22 1021.02 1021.06 1021.22 1021.57 1022.02 1022.23 1022.53 1023.41 1024.16 1023.83 1023.28 1023.03 1022.69 1023.02 1023.50 1024.44 1025.33 1026.85 1028.37 1028.23 1025.49 1022.89 1019.63 1018.52 1018.57 1018.67 1018.97 1019.57 1019.95 1020.25
1019.88 1019.89 1019.60 1019.05 1019.22 1019.81 1020.59 1022.46 1022.59 1021.81 1021.25 1020.99 1020.94 1020.81 1021.09 1021.13 1021.23 1021.32 1021.54 1021.67 1021.91 1022.12 1022.43 1023.20 1023.47 1023.17 1022.86 1022.70 1022.83 1023.11 1024.04 1025.26 1026.59 1027.67 1027.31 1024.78 1022.72 1019.51 1018.53 1018.14 1018.20 1018.64 1019.06 1019.42 1019.67
1020.02 1020.09 1019.35 1019.24 1019.37 1019.93 1022.09 1022.56 1021.96 1021.37 1020.90 1020.96 1020.98 1020.86 1020.89 1020.91 1020.97 1021.07 1021.33 1021.49 1021.51 1021.87 1022.08 1022.53 1023.25 1023.72 1023.31 1022.89 1022.83 1023.66 1024.07 1024.80 1025.65 1026.30 1026.47 1024.98 1021.19 1017.77 1017.29 1017.24 1017.61 1017.84 1018.43 1018.81 1019.23
1020.37 1020.43 1019.46 1019.59 1020.25 1021.55 1022.53 1021.84 1021.34 1021.29 1021.04 1020.93 1020.84 1020.62 1020.71 1020.79 1020.82 1020.85 1020.98 1021.03 1021.07 1021.51 1022.16 1022.55 1023.27 1023.76 1023.04 1022.42 1022.38 1022.73 1023.16 1023.97 1025.12 1025.27 1025.02 1024.17 1019.80 1017.00 1016.64 1016.51 1016.80 1017.33 1017.61 1017.93 1018.18
1020.70 1020.63 1019.98 1019.99 1021.10 1022.30 1022.01 1021.67 1021.25 1021.09 1020.91 1020.70 1020.58 1020.45 1020.42 1020.59 1020.81 1020.78 1020.91 1020.93 1021.13 1021.56 1022.05 1022.59 1023.55 1023.93 1023.36 1023.08 1022.62 1022.60 1022.43 1022.76 1023.38 1023.75 1023.33 1023.00 1018.47 1016.48 1016.07 1016.18 1016.42 1016.92 1017.07 1017.19 1017.38
1020.77 1021.27 1020.89 1020.82 1021.73 1021.77 1021.80 1021.52 1021.19 1020.92 1020.82 1020.71 1020.66 1020.46 1020.51 1020.59 1020.61 1020.84 1020.98 1021.15 1021.26 1021.59 1021.99 1022.63 1023.61 1023.92 1023.45 1022.60 1022.32 1022.53 1021.97 1021.98 1022.46 1022.72 1021.28 1019.08 1017.21 1015.72 1015.85 1015.91 1015.99 1016.26 1016.28 1016.37 1016.50
1021.33 1022.41 1022.07 1022.26 1022.10 1021.62 1021.34 1021.19 1021.22 1021.09 1021.01 1020.91 1020.87 1020.85 1020.95 1021.09 1021.07 1021.19 1021.23 1021.59 1021.90 1022.11 1022.59 1023.27 1023.89 1023.86 1023.25 1022.76 1022.38 1021.59 1021.27 1021.35 1021.32 1020.62 1020.39 1016.87 1016.89 1013.52 1014.93 1014.94 1015.03 1015.14 1015.29 1015.53 1015.66
1021.97 1022.36 1022.45 1022.28 1021.88 1021.47 1021.23 1021.06 1020.88 1020.73 1020.84 1020.92 1021.09 1021.01 1021.06 1021.19 1021.18 1021.37 1021.57 1021.94 1022.05 1022.74 1023.15 1023.64 1023.97 1024.07 1023.47 1022.23 1021.72 1020.84 1019.95 1019.69 1019.61 1019.35 1018.45 1017.38 1015.74 1013.87 1013.65 1014.13 1014.29 1014.46 1014.57 1014.68 1014.58
1022.36 1022.43 1022.34 1022.59 1022.11 1021.74 1021.23 1020.79 1020.60 1020.46 1020.55 1020.49 1020.73 1020.96 1020.98 1020.88 1021.01 1021.19 1021.41 1021.67 1022.03 1022.59 1023.51 1024.04 1024.48 1024.78 1023.48 1022.50 1021.50 1019.52 1016.97 1017.08 1017.35 1017.06 1016.78 1016.30 1013.74 1013.35 1013.40 1013.47 1013.37 1013.54 1013.63 1013.76 1013.73
Wind_Speed
13 12 17 15 10 12 12 12 10 6 8 7 15 13 11 7 3 3 9 4 6 9 8 5 2 0 3 3 3 3 6 3 2 5 4 2 2 5 1 2 4 4 4 2 1
9 17 13 17 12 13 12 10 9 6 5 15 14 14 9 5 14 12 10 10 9 10 4 6 3 3 4 3 3 5 5 3 2 2 4 3 3 2 2 5 2 2 2 1 1
10 12 15 14 8 7 11 10 8 4 6 20 19 13 7 1 5 5 21 10 8 8 2 1 3 2 4 4 4 2 4 5 1 2 3 2 2 5 2 1 2 1 4 5 4
18 13 16 14 15 9 11 11 7 7 8 19 17 11 7 1 4 4 21 16 11 8 4 1 3 3 4 4 2 7 5 5 4 2 2 3 3 3 3 4 5 2 4 2 7
17 16 15 14 14 12 11 10 6 10 19 18 16 4 5 8 4 7 21 16 5 5 5 4 4 4 5 5 3 5 3 4 4 4 2 2 2 4 7 9 6 6 6 4 5
15 14 15 12 12 11 11 9 9 14 18 17 11 5 5 9 5 8 13 8 6 4 7 7 3 3 6 4 5 3 6 4 3 1 2 2 2 5 4 1 3 5 5 6 4
14 15 14 13 11 11 10 9 17 17 16 15 10 8 14 3 5 10 8 5 5 3 4 4 3 5 3 4 2 4 5 3 2 1 0 3 2 6 5 3 3 5 6 6 7
12 13 12 10 10 12 11 13 18 17 15 13 11 6 5 4 9 5 4 5 7 5 3 3 5 7 5 3 5 4 5 3 2 2 1 1 7 5 7 5 6 7 6 7 5
12 11 9 11 12 18 15 16 15 16 11 9 10 7 3 13 6 7 5 3 4 5 6 3 6 5 5 5 5 6 2 1 2 2 1 1 6 4 4 2 7 7 5 6 5
9 12 11 14 22 20 20 15 14 8 6 2 3 9 4 2 4 6 4 3 6 4 6 8 7 5 6 6 5 4 3 2 0 3 2 3 14 10 10 6 9 3 6 5 4
14 12 13 15 13 8 5 3 6 8 10 7 5 6 2 4 4 5 4 4 3 6 4 5 9 3 1 1 2 4 3 1 2 1 4 5 10 18 8 8 7 7 6 3 2
14 12 10 9 8 5 3 5 1 4 10 10 7 3 2 2 4 8 4 3 5 4 3 8 4 2 0 4 5 5 2 3 4 2 4 5 16 15 9 5 7 8 5 3 3
9 8 9 11 13 9 6 3 4 6 6 6 1 2 3 3 4 7 4 2 6 6 5 6 3 2 2 5 5 4 4 1 2 7 2 8 9 5 1 6 8 5 4 2 3
10 10 9 10 7 3 3 2 5 4 7 10 6 5 4 2 5 3 3 3 5 5 4 6 2 2 4 3 3 2 1 2 2 5 3 4 7 7 3 5 4 4 2 1 2
8 9 7 3 4 2 1 2 4 3 8 6 6 2 4 4 2 8 3 6 4 4 5 3 2 2 2 3 2 2 1 1 2 1 4 2 2 10 1 5 6 7 5 5 3
3 5 6 2 2 3 4 2 3 7 4 3 3 2 3 3 2 2 4 6 2 6 7 2 1 1 1 1 2 1 2 1 0 3 3 5 4 7 4 5 4 4 5 5 3
2 4 1 3 3 3 4 4 6 8 4 1 2 2 3 4 4 2 3 4 4 6 5 6 1 1 1 3 2 3 5 4 7 4 6 2 3 11 5 4 5 7 7 7 5
4 5 3 3 2 5 4 4 12 5 3 3 1 1 4 3 3 3 3 4 5 5 4 4 6 2 2 2 2 2 5 6 5 2 6 5 7 9 4 6 5 6 6 6 4
4 1 2 2 3 3 5 8 7 6 3 4 2 4 4 2 2 2 2 3 1 2 5 5 4 1 3 1 3 1 1 4 5 2 3 4 9 10 6 4 5 8 6 7 7
2 2 3 3 4 4 7 5 2 1 1 3 3 1 2 1 2 2 3 3 3 2 2 4 3 3 2 1 1 2 4 3 3 1 6 7 7 9 6 10 9 9 9 8 7
3 3 1 2 3 6 6 2 3 3 5 3 2 2 1 2 1 2 3 1 3 2 2 1 4 3 1 6 7 2 2 2 2 5 5 5 9 8 8 10 10 10 8 8 8
2 4 2 2 6 3 3 3 1 2 1 1 1 1 4 3 0 1 4 2 4 5 3 1 4 4 10 4 6 5 8 7 5 5 5 2 11 3 6 7 7 7 8 8 9
2 1 3 3 5 3 1 3 2 1 1 3 2 3 1 1 2 2 4 1 6 4 4 3 1 3 9 6 1 5 6 6 3 3 8 4 9 2 2 2 6 8 8 9 9
4 3 5 5 1 6 3 2 1 1 2 2 2 3 3 1 0 2 2 3 4 4 5 3 3 7 8 5 4 5 6 7 10 4 6 17 21 16 8 8 7 9 10 10 11
4 1 3 1 3 3 3 5 3 1 1 0 2 2 1 2 1 2 1 1 0 2 3 3 5 4 7 10 8 15 16 14 15 16 12 17 16 25 8 10 9 9 8 9 9
3 3 3 0 1 3 2 4 5 3 6 3 3 2 3 4 4 3 2 4 6 1 5 3 5 2 6 12 9 14 15 17 20 21 20 26 31 26 25 15 7 10 7 9 9
2 2 4 3 2 3 3 2 3 3 2 4 4 1 3 5 4 6 5 5 3 8 7 4 2 3 7 5 8 10 11 12 7 7 13 15 21 18 10 8 9 8 8 8 9
Wind_Direction
22 64 133 123 117 107 96 81 72 81 89 110 159 143 132 134 143 45 51 344 336 339 339 313 356 201 85 66 42 86 63 86 142 156 174 8 106 344 285 38 354 11 77 138 73
35 85 52 74 61 85 84 72 60 65 119 148 132 127 135 160 87 61 358 351 352 352 23 22 71 83 50 52 15 76 87 154 302 132 150 108 104 324 62 12 340 44 100 48 151
46 101 107 112 55 71 77 68 30 17 160 133 113 96 68 128 70 347 345 346 343 350 312 332 302 76 67 51 4 60 133 150 27 98 52 85 78 328 99 239 199 262 300 326 14
52 88 105 107 110 67 65 70 28 62 128 114 128 94 55 40 106 321 341 335 338 338 343 84 86 73 85 98 11 99 39 122 169 37 65 80 308 331 220 231 140 321 262 336 0
58 66 72 68 70 71 60 69 69 102 112 127 131 39 70 52 38 306 332 325 344 353 44 52 72 107 120 111 69 78 118 66 94 64 56 40 274 248 257 258 275 268 266 325 307
56 61 73 74 67 54 56 77 123 115 108 111 114 112 54 68 288 310 327 323 18 33 27 37 42 92 89 64 70 82 94 110 62 42 31 22 312 17 286 294 163 170 236 266 304
57 72 66 66 62 56 55 75 131 115 99 85 109 104 62 73 314 318 321 352 352 50 70 13 307 80 97 87 76 116 79 53 354 26 7 57 294 232 245 212 188 223 265 32 98
80 80 66 61 53 60 66 88 108 106 92 71 50 62 91 310 304 339 325 5 25 46 79 10 51 86 59 113 44 66 50 87 282 210 231 101 266 271 193 170 249 279 283 120 105
105 97 75 66 62 76 68 101 96 105 61 22 37 92 73 322 17 318 36 52 16 7 14 17 55 75 37 75 34 12 147 154 281 205 275 132 261 248 186 306 283 284 141 139 102
117 100 87 79 85 79 68 82 84 54 33 62 161 70 334 30 319 330 332 27 57 5 19 40 48 68 33 62 199 178 129 76 147 351 330 265 266 250 262 271 259 233 158 117 77
95 88 95 92 69 54 348 5 23 21 32 49 65 61 36 299 306 352 358 4 48 41 77 23 67 89 120 8 127 113 102 100 311 100 323 242 272 281 258 241 252 184 157 122 44
85 85 82 71 68 45 80 67 332 148 63 30 36 37 284 274 40 351 8 78 69 90 61 27 92 235 1 47 76 55 76 337 289 312 343 305 282 273 279 236 188 160 154 113 354
69 73 74 68 67 44 59 54 331 351 98 34 302 327 304 10 58 348 33 11 83 50 39 111 178 301 93 38 78 33 122 61 226 321 258 321 302 331 2 81 80 95 137 127 20
55 29 27 17 28 326 53 292 326 335 78 349 354 345 346 5 49 331 30 72 50 125 84 85 305 54 76 76 119 141 251 73 36 38 272 36 278 298 239 163 132 161 178 225 310
45 48 74 48 163 71 275 265 325 8 80 304 307 259 311 74 134 356 7 37 83 86 92 243 127 88 87 206 156 174 79 121 192 72 40 333 58 271 132 223 197 217 216 222 252
66 45 118 51 67 129 121 92 43 45 61 306 298 345 34 36 52 41 31 47 91 71 42 100 314 39 48 56 64 95 63 304 297 82 10 248 141 280 215 207 182 183 207 220 258
337 333 36 153 197 154 102 81 50 72 292 344 38 20 61 31 47 64 44 33 91 75 7 350 359 339 76 86 38 70 52 342 353 2 231 341 30 249 271 238 181 196 219 216 227
328 341 279 227 183 137 126 73 66 237 216 246 150 87 84 26 45 49 64 35 36 86 104 124 327 193 167 211 163 180 128 146 230 273 281 358 242 254 244 198 164 189 196 198 220
302 256 274 249 158 91 77 50 172 207 157 120 102 68 14 15 87 73 78 151 175 103 129 128 293 217 197 94 121 286 64 165 106 84 22 248 283 291 188 212 214 225 205 220 223
61 2 267 178 121 80 72 101 74 69 97 74 66 102 102 163 114 130 186 210 162 162 145 212 59 217 197 158 228 177 155 71 4 314 275 282 266 237 219 224 227 238 223 226 225
53 28 262 97 61 47 92 112 82 46 65 97 17 98 120 185 200 186 179 224 177 152 98 96 96 290 90 208 180 123 243 205 129 162 203 294 263 221 216 209 212 233 227 222 222
89 39 330 53 51 37 73 124 125 27 28 305 206 96 161 173 158 127 201 270 170 141 141 196 142 220 220 239 193 184 192 160 142 238 236 190 271 297 253 240 203 230 232 221 217
98 244 346 43 90 1 14 61 50 100 291 355 342 35 70 129 140 151 163 194 165 141 166 179 279 347 340 355 3 215 203 190 162 102 206 173 259 309 13 234 225 234 244 236 227
85 45 336 48 95 122 124 132 80 345 307 340 306 7 28 342 276 217 203 222 187 146 134 107 196 199 201 214 148 223 221 209 199 184 238 230 273 244 254 240 248 247 248 243 225
37 242 191 311 354 95 110 158 135 224 275 240 310 257 178 315 267 253 193 59 51 190 139 141 244 213 252 255 246 251 248 237 220 227 218 270 249 270 250 244 241 246 262 259 238
90 95 11 108 314 81 58 191 176 189 161 218 202 313 209 215 193 221 134 184 206 176 170 182 265 329 270 259 267 269 253 240 241 243 255 261 268 273 276 268 264 255 253 256 249
333 0 97 321 22 86 221 178 180 161 179 176 177 139 259 244 199 222 221 252 218 166 193 169 193 10 273 323 304 283 256 212 194 214 214 235 245 264 265 240 241 250 251 252 251